North Las Vegas, NV

1:47 AM PST on February 21, 2018 (GMT -0800)
North Las Vegas

Weather History for KVGT - September, 2013

Change the Weather History Date:

Saturday, September 21, 2013

  Actual Average Record
Temperature  
Mean Temperature 82 °F 79 °F  
Max Temperature 95 °F 91 °F 99 °F (2011)
Min Temperature 71 °F 67 °F 57 °F (2006)
Degree Days  
Heating Degree Days 0 0  
Month to date heating degree days 0  
Since 1 July heating degree days 0  
Cooling Degree Days 17 14  
Month to date cooling degree days 376  
Year to date cooling degree days 3022  
Growing Degree Days 32 (Base 50)    
Moisture  
Dew Point 30 °F    
Average Humidity 17    
Maximum Humidity 30    
Minimum Humidity 6    
Precipitation  
Precipitation 0.00 in 0.01 in 0.21 in (2007)
Month to date precipitation 0.29  
Year to date precipitation 3.89  
Sea Level Pressure  
Sea Level Pressure 29.67 in    
Wind  
Wind Speed 9 mph (SW)    
Max Wind Speed 21 mph    
Max Gust Speed 33 mph    
Visibility 10 miles    
Events      
T = Trace of Precipitation, MM = Missing Value Source: NWS Daily Summary

Daily Weather History Graph

Daily Weather History Graph

Search for Another Location

Airport or City:

Trip Planner

Search our weather history database for the weather conditions in past years. The results will help you decide how hot, cold, wet, or windy it might be!

Date:

Astronomy

Sep. 21, 2013 Rise Set
Actual Time 6:28 AM PDT 6:38 PM PDT
Civil Twilight 6:02 AM PDT 7:04 PM PDT
Nautical Twilight 5:32 AM PDT 7:34 PM PDT
Astronomical Twilight 5:02 AM PDT 8:04 PM PDT
Moon 7:58 PM PDT 8:45 AM PDT
Length of Visible Light 13h 01m
Length of Day
12h 10m
Waning Gibbous, 94% of the Moon is Illuminated
Sep 21
Waning Gibbous
Sep 26
Last Quarter
Oct 4
New
Oct 11
First Quarter
Oct 18
Full

Hourly Weather History & Observations

Time (PDT) Temp. Dew Point Humidity Pressure Visibility Wind Dir Wind Speed Gust Speed Precip Events Conditions
12:53 AM 77.0 °F 32.0 °F 19% 29.74 in 10.0 mi Calm Calm - N/A   Clear
1:53 AM 78.1 °F 33.1 °F 19% 29.74 in 10.0 mi SSW 9.2 mph - N/A   Clear
2:53 AM 75.9 °F 34.0 °F 22% 29.73 in 10.0 mi SSW 9.2 mph - N/A   Clear
3:53 AM 75.0 °F 34.0 °F 22% 29.74 in 10.0 mi SSW 8.1 mph - N/A   Clear
4:53 AM 73.0 °F 35.1 °F 25% 29.75 in 10.0 mi Calm Calm - N/A   Clear
5:53 AM 73.9 °F 33.1 °F 22% 29.75 in 10.0 mi SW 6.9 mph - N/A   Clear
6:53 AM 71.1 °F 34.0 °F 26% 29.77 in 10.0 mi WSW 3.5 mph - N/A   Clear
7:53 AM 73.9 °F 37.0 °F 26% 29.78 in 10.0 mi SSE 5.8 mph - N/A   Clear
8:53 AM 81.0 °F 36.0 °F 20% 29.76 in 10.0 mi SSE 11.5 mph - N/A   Clear
9:53 AM 84.0 °F 37.9 °F 19% 29.76 in 10.0 mi ESE 13.8 mph - N/A   Clear
10:53 AM 87.1 °F 36.0 °F 16% 29.73 in 10.0 mi South 17.3 mph 21.9 mph N/A   Clear
11:53 AM 91.0 °F 28.0 °F 10% 29.70 in 10.0 mi SSW 20.7 mph 29.9 mph N/A   Clear
12:53 PM 91.9 °F 27.0 °F 10% 29.68 in 10.0 mi WSW 13.8 mph 26.5 mph N/A   Clear
1:53 PM 93.0 °F 18.0 °F 6% 29.65 in 10.0 mi WSW 17.3 mph 24.2 mph N/A   Clear
2:53 PM 93.9 °F 16.0 °F 6% 29.62 in 10.0 mi SW 18.4 mph 33.4 mph N/A   Clear
3:53 PM 91.9 °F 16.0 °F 6% 29.60 in 10.0 mi WSW 19.6 mph 32.2 mph N/A   Clear
4:53 PM 90.0 °F 17.1 °F 7% 29.60 in 10.0 mi WSW 17.3 mph 32.2 mph N/A   Clear
5:53 PM 88.0 °F 21.0 °F 9% 29.59 in 10.0 mi WSW 15.0 mph 27.6 mph N/A   Clear
6:53 PM 86.0 °F 23.0 °F 10% 29.57 in 10.0 mi SW 12.7 mph - N/A   Clear
7:53 PM 84.0 °F 23.0 °F 11% 29.57 in 10.0 mi SW 10.4 mph - N/A   Clear
8:53 PM 81.0 °F 30.9 °F 16% 29.57 in 10.0 mi WSW 16.1 mph 24.2 mph N/A   Clear
9:53 PM 78.1 °F 36.0 °F 22% 29.59 in 10.0 mi SW 16.1 mph - N/A   Clear
10:53 PM 77.0 °F 37.0 °F 24% 29.58 in 10.0 mi SSW 15.0 mph - N/A   Clear
11:53 PM 73.9 °F 41.0 °F 30% 29.59 in 10.0 mi SSW 11.5 mph 19.6 mph N/A   Clear